Location: Chevoux
(46.3801°N, 4.9476°E)
Time: 21:38:29
(UTC+00:00)

NOSS 3-1 (A) - Pass Details

Date: 28 January 2021
Orbit: 735 x 1477 km, 63.4° (Epoch: 02 March)

Event Time Altitude Azimuth Distance (km) Brightness Sun altitude
Rises 17:38:53 0° 320° (NW) 3,907 7.0 -10.5°
Reaches altitude 10° 17:41:24 10° 322° (NW) 3,046 6.4 -10.9°
Maximum altitude 17:48:53 80° 50° (NE) 1,318 4.1 -12.2°
Drops below altitude 10° 17:57:36 10° 138° (SE) 3,518 6.1 -13.7°
Sets 18:00:41 0° 139° (SE) 4,541 6.7 -14.2°
